College Park, MD

2:26 AM EST on January 19, 2017 (GMT -0500)
College Park

Weather History for KCGS - January, 2013

Change the Weather History Date:

Wednesday, January 23, 2013

  Actual Average Record
Temperature  
Mean Temperature 20 °F -  
Max Temperature 28 °F 43 °F 72 °F (1967)
Min Temperature 13 °F 26 °F 3 °F (1961)
Degree Days  
Heating Degree Days 44    
Moisture  
Dew Point 3 °F    
Average Humidity 44    
Maximum Humidity 81    
Minimum Humidity 30    
Precipitation  
Precipitation 0.00 in - - ()
Sea Level Pressure  
Sea Level Pressure 30.27 in    
Wind  
Wind Speed 5 mph (NW)    
Max Wind Speed 14 mph    
Max Gust Speed 21 mph    
Visibility 10 miles    
Events      
Averages and records for this station are not official NWS values.
T = Trace of Precipitation, MM = Missing Value Source: NWS Daily Summary

Daily Weather History Graph

Daily Weather History Graph

Search for Another Location

Airport or City:

Trip Planner

Search our weather history database for the weather conditions in past years. The results will help you decide how hot, cold, wet, or windy it might be!

Date:

Astronomy

Jan. 23, 2013 Rise Set
Actual Time 7:20 AM EST 5:18 PM EST
Civil Twilight 6:52 AM EST 5:47 PM EST
Nautical Twilight 6:19 AM EST 6:19 PM EST
Astronomical Twilight 5:48 AM EST 6:51 PM EST
Moon 2:27 PM EST (1/23) 4:30 AM EST (1/23)
Length of Visible Light 10h 55m
Length of Day
9h 58m
Waxing Gibbous, 89% of the Moon is Illuminated
Jan 23
Waxing Gibbous
Jan 26
Full
Feb 3
Last Quarter
Feb 10
New
Feb 17
First Quarter

Hourly Weather History & Observations

Time (EST) Temp. Windchill Dew Point Humidity Pressure Visibility Wind Dir Wind Speed Gust Speed Precip Events Conditions
12:10 AM 18.7 °F 11.9 °F 2.7 °F 50% 30.31 in 10.0 mi NW 4.6 mph - N/A   Clear
12:30 AM 18.9 °F 10.8 °F 2.7 °F 49% 30.31 in 10.0 mi NW 5.8 mph - N/A   Clear
12:50 AM 18.5 °F 11.7 °F 2.3 °F 49% 30.30 in 10.0 mi NW 4.6 mph - N/A   Clear
1:15 AM 18.9 °F 12.1 °F 2.8 °F 50% 30.31 in 10.0 mi NW 4.6 mph - N/A   Clear
1:35 AM 18.9 °F 12.1 °F 2.7 °F 49% 30.31 in 10.0 mi WNW 4.6 mph - N/A   Clear
1:55 AM 18.5 °F 10.4 °F 2.5 °F 50% 30.31 in 10.0 mi NW 5.8 mph - N/A   Clear
2:20 AM 17.8 °F 12.5 °F 2.7 °F 52% 30.32 in 10.0 mi NNW 3.5 mph - N/A   Clear
2:40 AM 18.0 °F 11.1 °F 3.0 °F 52% 30.33 in 10.0 mi NW 4.6 mph - N/A   Clear
3:00 AM 18.5 °F 9.3 °F 2.8 °F 51% 30.33 in 10.0 mi NW 6.9 mph - N/A   Clear
3:20 AM 18.1 °F 10.0 °F 3.0 °F 52% 30.32 in 10.0 mi NNW 5.8 mph - N/A   Clear
4:05 AM 17.2 °F - 3.6 °F 55% 30.32 in 10.0 mi Calm Calm - N/A   Clear
4:25 AM 17.1 °F 11.7 °F 3.9 °F 56% 30.32 in 10.0 mi NNW 3.5 mph - N/A   Clear
4:45 AM 16.7 °F - 4.1 °F 58% 30.32 in 10.0 mi Calm Calm - N/A   Clear
5:10 AM 16.7 °F - 3.9 °F 57% 30.32 in 10.0 mi Calm Calm - N/A   Clear
5:30 AM 15.6 °F - 5.4 °F 64% 30.33 in 10.0 mi Calm Calm - N/A   Clear
5:50 AM 14.7 °F - 6.4 °F 70% 30.33 in 10.0 mi Calm Calm - N/A   Clear
6:10 AM 14.0 °F - 7.2 °F 74% 30.33 in 10.0 mi Calm Calm - N/A   Clear
6:35 AM 13.8 °F - 7.7 °F 77% 30.33 in 10.0 mi Calm Calm - N/A   Clear
6:55 AM 13.8 °F - 9.0 °F 81% 30.34 in 10.0 mi Calm Calm - N/A   Clear
7:40 AM 16.5 °F 11.0 °F 5.7 °F 63% 30.35 in 10.0 mi West 3.5 mph - N/A   Clear
8:00 AM 17.6 °F 9.3 °F 5.4 °F 59% 30.35 in 10.0 mi West 5.8 mph - N/A   Clear
8:20 AM 18.5 °F 11.7 °F 5.5 °F 57% 30.35 in 10.0 mi WNW 4.6 mph - N/A   Clear
8:40 AM 19.6 °F 6.8 °F 4.5 °F 52% 30.35 in 10.0 mi WNW 12.7 mph 16.1 mph N/A   Clear
9:05 AM 20.7 °F 10.2 °F 1.9 °F 44% 30.35 in 10.0 mi WNW 9.2 mph 19.6 mph N/A   Clear
9:25 AM 21.4 °F 11.1 °F 1.8 °F 43% 30.36 in 10.0 mi NW 9.2 mph 17.3 mph N/A   Clear
10:05 AM 23.0 °F 14.7 °F 1.9 °F 40% 30.36 in 10.0 mi WNW 6.9 mph - N/A   Clear
10:30 AM 23.4 °F 13.5 °F 1.6 °F 39% 30.36 in 10.0 mi NW 9.2 mph - N/A   Clear
10:50 AM 24.6 °F 12.7 °F 1.2 °F 36% 30.35 in 10.0 mi WNW 13.8 mph 17.3 mph N/A   Scattered Clouds
11:10 AM 24.8 °F 13.4 °F 0.9 °F 36% 30.34 in 10.0 mi West 12.7 mph 19.6 mph N/A   Clear
11:30 AM 25.0 °F 14.2 °F 0.5 °F 35% 30.33 in 10.0 mi West 11.5 mph 20.7 mph N/A   Clear
11:55 AM 25.5 °F 14.9 °F 1.0 °F 35% 30.30 in 10.0 mi NW 11.5 mph 16.1 mph N/A   Clear
12:15 PM 25.9 °F 17.4 °F 0.9 °F 34% 30.29 in 10.0 mi West 8.1 mph - N/A   Scattered Clouds
12:35 PM 26.6 °F 16.2 °F 1.6 °F 34% 30.27 in 10.0 mi West 11.5 mph 17.3 mph N/A   Scattered Clouds
12:55 PM 27.0 °F 15.6 °F 1.9 °F 34% 30.26 in 10.0 mi WNW 13.8 mph - N/A   Clear
1:20 PM 25.9 °F 20.3 °F 0.9 °F 34% 30.26 in 10.0 mi WSW 4.6 mph - N/A   Mostly Cloudy
1:40 PM 27.3 °F 19.1 °F 1.4 °F 33% 30.24 in 10.0 mi WNW 8.1 mph 18.4 mph N/A   Mostly Cloudy
2:00 PM 27.3 °F 20.9 °F 1.2 °F 33% 30.24 in 10.0 mi West 5.8 mph 9.2 mph N/A   Overcast
2:20 PM 27.0 °F 18.7 °F 1.0 °F 33% 30.24 in 10.0 mi NW 8.1 mph - N/A   Overcast
2:45 PM 27.3 °F 19.1 °F 1.0 °F 32% 30.24 in 10.0 mi WNW 8.1 mph - N/A   Overcast
3:05 PM 27.5 °F 22.2 °F 1.0 °F 32% 30.23 in 10.0 mi WNW 4.6 mph - N/A   Overcast
3:45 PM 28.8 °F 20.9 °F 1.0 °F 31% 30.22 in 10.0 mi WNW 8.1 mph - N/A   Mostly Cloudy
4:10 PM 28.2 °F 23.1 °F -0.0 °F 30% 30.22 in 10.0 mi West 4.6 mph - N/A   Overcast
4:30 PM 28.4 °F 21.2 °F 0.3 °F 30% 30.22 in 10.0 mi West 6.9 mph - N/A   Mostly Cloudy
5:10 PM 27.3 °F - 0.9 °F 32% 30.22 in 10.0 mi Calm Calm - N/A   Mostly Cloudy
5:35 PM 27.5 °F - 1.4 °F 33% 30.21 in 10.0 mi Calm Calm - N/A   Overcast
5:55 PM 27.5 °F - 0.9 °F 32% 30.21 in 10.0 mi Calm Calm - N/A   Overcast
6:15 PM 27.3 °F 20.9 °F 1.8 °F 33% 30.22 in 10.0 mi NNW 5.8 mph - N/A   Overcast
6:35 PM 27.5 °F 22.2 °F 1.4 °F 33% 30.22 in 10.0 mi WNW 4.6 mph - N/A   Overcast
7:00 PM 27.5 °F - 1.9 °F 33% 30.20 in 10.0 mi Calm Calm - N/A   Overcast
7:20 PM 27.1 °F - 3.0 °F 36% 30.20 in 10.0 mi Calm Calm - N/A   Overcast
7:40 PM 27.1 °F - 2.8 °F 35% 30.20 in 10.0 mi Calm Calm - N/A   Overcast
8:00 PM 27.0 °F 20.5 °F 2.1 °F 34% 30.19 in 10.0 mi North 5.8 mph - N/A   Overcast
8:20 PM 27.0 °F 23.0 °F 2.7 °F 35% 30.19 in 10.0 mi North 3.5 mph - N/A   Overcast
8:45 PM 27.0 °F 21.6 °F 2.1 °F 34% 30.19 in 10.0 mi North 4.6 mph - N/A   Overcast
9:05 PM 26.6 °F 22.6 °F 1.9 °F 35% 30.19 in 10.0 mi North 3.5 mph - N/A   Overcast
9:25 PM 26.6 °F 21.2 °F 2.7 °F 36% 30.20 in 10.0 mi North 4.6 mph - N/A   Overcast
9:50 PM 26.4 °F - 3.2 °F 37% 30.19 in 10.0 mi Calm Calm - N/A   Overcast
10:10 PM 26.6 °F - 2.7 °F 36% 30.19 in 10.0 mi Calm Calm - N/A   Overcast
10:55 PM 26.2 °F - 3.2 °F 37% 30.18 in 10.0 mi Calm Calm - N/A   Overcast
11:15 PM 26.4 °F - 2.5 °F 36% 30.17 in 10.0 mi Calm Calm - N/A   Overcast
11:35 PM 26.1 °F - 7.7 °F 46% 30.17 in 10.0 mi Calm Calm - N/A   Overcast
11:55 PM 25.7 °F - 8.1 °F 47% 30.16 in 10.0 mi Calm Calm - N/A   Overcast